Kimball, NE

2:44 AM MST on December 10, 2016 (GMT -0700)
Kimball Municipal-Arraj

Weather History for KIBM - February, 2014

Change the Weather History Date:

Sunday, February 2, 2014

  Actual Average (KSNY) Record (KSNY)
Temperature  
Mean Temperature 10 °F -  
Max Temperature 26 °F 36 °F 65 °F (2000)
Min Temperature -7 °F 10 °F -19 °F (2011)
Degree Days  
Heating Degree Days 56    
Moisture  
Dew Point 0 °F    
Average Humidity 78    
Maximum Humidity 89    
Minimum Humidity 60    
Precipitation  
Precipitation 0.00 in - - ()
Sea Level Pressure  
Sea Level Pressure 29.97 in    
Wind  
Wind Speed 5 mph (WSW)    
Max Wind Speed 10 mph    
Max Gust Speed -    
Visibility 10 miles    
Events Snow    
Averages and records for this station are not official NWS values.
T = Trace of Precipitation, MM = Missing Value Source: NWS Daily Summary

Daily Weather History Graph

Daily Weather History Graph

Search for Another Location

Airport or City:

Trip Planner

Search our weather history database for the weather conditions in past years. The results will help you decide how hot, cold, wet, or windy it might be!

Date:

Astronomy

Feb. 02, 2014 Rise Set
Actual Time 8:04 AM CST 6:12 PM CST
Civil Twilight 7:35 AM CST 6:41 PM CST
Nautical Twilight 7:02 AM CST 7:14 PM CST
Astronomical Twilight 6:30 AM CST 7:47 PM CST
Moon 9:30 AM CST (2/2) 10:02 PM CST (2/2)
Length of Visible Light 11h 06m
Length of Day
10h 08m
Waxing Crescent, 11% of the Moon is Illuminated
Feb 2
Waxing Crescent
Feb 6
First Quarter
Feb 14
Full
Feb 22
Last Quarter
Mar 1
New

Hourly Weather History & Observations

Time (CST) Temp. Windchill Dew Point Humidity Pressure Visibility Wind Dir Wind Speed Gust Speed Precip Events Conditions
12:15 AM -3.6 °F -17.3 °F -8.0 °F 82% 30.04 in 10.0 mi WSW 6.9 mph - N/A   Clear
12:35 AM -3.5 °F -15.7 °F -8.1 °F 80% 30.03 in 10.0 mi SW 5.8 mph - N/A   Clear
12:55 AM -4.2 °F -16.5 °F -8.7 °F 81% 30.04 in 10.0 mi WSW 5.8 mph - N/A   Clear
1:15 AM -4.0 °F -16.3 °F -9.0 °F 79% 30.03 in 10.0 mi SW 5.8 mph - N/A   Mostly Cloudy
1:35 AM -4.0 °F -16.3 °F -8.9 °F 80% 30.02 in 10.0 mi SW 5.8 mph - N/A   Scattered Clouds
1:55 AM -4.5 °F -13.0 °F -9.4 °F 80% 30.02 in 10.0 mi SW 3.5 mph - N/A   Clear
2:15 AM -1.1 °F -11.2 °F -5.4 °F 82% 30.01 in 10.0 mi SSW 4.6 mph - N/A   Clear
2:35 AM -6.3 °F -17.3 °F -11.7 °F 77% 30.01 in 10.0 mi SW 4.6 mph - N/A   Clear
2:55 AM -6.5 °F -19.3 °F -11.6 °F 79% 30.01 in 7.0 mi SSW 5.8 mph - N/A Snow Light Snow
3:15 AM -5.8 °F -16.7 °F -10.8 °F 79% 30.01 in 7.0 mi SSW 4.6 mph - N/A Snow Light Snow
3:35 AM -6.9 °F -15.7 °F -12.5 °F 77% 30.00 in 4.0 mi SW 3.5 mph - N/A   Haze
3:55 AM -7.2 °F -18.3 °F -12.8 °F 77% 30.01 in 10.0 mi SW 4.6 mph - N/A   Clear
4:15 AM -7.2 °F -20.1 °F -12.8 °F 77% 29.99 in 10.0 mi WSW 5.8 mph - N/A   Clear
4:35 AM -1.5 °F -16.0 °F -6.0 °F 81% 29.99 in 10.0 mi West 8.1 mph - N/A   Clear
4:55 AM -2.0 °F -15.4 °F -7.1 °F 79% 29.99 in 10.0 mi West 6.9 mph - N/A   Clear
5:15 AM -3.3 °F -15.4 °F -8.0 °F 80% 29.98 in 10.0 mi West 5.8 mph - N/A   Clear
5:35 AM -3.3 °F -13.7 °F -8.3 °F 79% 29.98 in 10.0 mi SW 4.6 mph - N/A   Clear
5:55 AM -3.3 °F -15.4 °F -8.0 °F 80% 29.97 in 7.0 mi WSW 5.8 mph - N/A Snow Light Snow
6:15 AM -6.3 °F -19.1 °F -11.7 °F 77% 29.97 in 7.0 mi West 5.8 mph - N/A   Clear
6:35 AM -1.5 °F -9.5 °F -6.0 °F 81% 29.97 in 7.0 mi West 3.5 mph - N/A Snow Light Snow
6:55 AM -1.3 °F -15.7 °F -6.0 °F 81% 29.96 in 10.0 mi West 8.1 mph - N/A   Clear
7:15 AM 1.4 °F -12.5 °F -2.9 °F 82% 29.96 in 10.0 mi West 8.1 mph - N/A   Clear
7:35 AM 1.8 °F -5.8 °F -2.9 °F 81% 29.97 in 10.0 mi West 3.5 mph - N/A   Clear
7:55 AM 1.9 °F -11.8 °F -2.7 °F 81% 29.97 in 10.0 mi West 8.1 mph - N/A   Clear
8:15 AM 0.5 °F -9.3 °F -4.4 °F 80% 29.97 in 10.0 mi West 4.6 mph - N/A   Clear
8:35 AM -4.2 °F -16.5 °F -9.4 °F 78% 29.97 in 10.0 mi West 5.8 mph - N/A   Clear
8:55 AM -2.2 °F -14.2 °F -6.7 °F 81% 29.98 in 10.0 mi West 5.8 mph - N/A   Clear
9:15 AM -0.4 °F -13.4 °F -5.3 °F 80% 29.99 in 10.0 mi West 6.9 mph - N/A   Clear
9:35 AM 3.0 °F -8.0 °F -1.5 °F 82% 29.99 in 10.0 mi West 5.8 mph - N/A   Clear
9:55 AM 4.1 °F -6.7 °F -0.4 °F 82% 30.00 in 10.0 mi West 5.8 mph - N/A   Clear
10:15 AM 8.1 °F -4.3 °F 4.3 °F 85% 30.00 in 10.0 mi West 8.1 mph - N/A   Clear
10:35 AM 9.1 °F -4.0 °F 5.4 °F 85% 30.00 in 10.0 mi West 9.2 mph - N/A   Clear
10:55 AM 11.1 °F -1.6 °F 7.5 °F 85% 30.01 in 10.0 mi West 9.2 mph - N/A   Clear
11:15 AM 12.2 °F -0.2 °F 8.6 °F 85% 30.02 in 10.0 mi West 9.2 mph - N/A   Clear
11:35 AM 13.6 °F 0.7 °F 10.4 °F 87% 30.02 in 10.0 mi WSW 10.4 mph - N/A   Clear
11:55 AM 14.9 °F 6.1 °F 11.8 °F 88% 30.02 in 10.0 mi West 5.8 mph - N/A   Clear
12:15 PM 16.3 °F 5.7 °F 13.3 °F 88% 30.01 in 10.0 mi West 8.1 mph - N/A   Clear
12:35 PM 18.7 °F 9.5 °F 15.3 °F 87% 30.00 in 10.0 mi WSW 6.9 mph - N/A   Clear
12:55 PM 19.6 °F 13.0 °F 15.3 °F 83% 29.99 in 10.0 mi West 4.6 mph - N/A   Clear
1:15 PM 19.2 °F 12.5 °F 12.6 °F 75% 29.98 in 10.0 mi WSW 4.6 mph - N/A   Clear
1:35 PM 23.4 °F 17.4 °F 13.1 °F 65% 29.98 in 10.0 mi WSW 4.6 mph - N/A   Clear
1:55 PM 25.3 °F - 13.8 °F 62% 29.98 in 10.0 mi Calm Calm - N/A   Clear
2:15 PM 25.7 °F - 14.2 °F 62% 29.97 in 10.0 mi Calm Calm - N/A   Clear
2:35 PM 24.4 °F - 14.9 °F 67% 29.96 in 10.0 mi Calm Calm - N/A   Clear
2:55 PM 22.3 °F - 14.5 °F 72% 29.95 in 10.0 mi Calm Calm - N/A   Clear
3:15 PM 24.1 °F - 15.3 °F 69% 29.96 in 10.0 mi Calm Calm - N/A   Clear
3:35 PM 26.1 °F 21.9 °F 14.0 °F 60% 29.95 in 10.0 mi SW 3.5 mph - N/A   Clear
3:55 PM 24.8 °F 20.5 °F 14.2 °F 64% 29.95 in 10.0 mi SSW 3.5 mph - N/A   Clear
4:15 PM 25.9 °F - 13.8 °F 60% 29.95 in 10.0 mi Calm Calm - N/A   Clear
4:35 PM 24.6 °F - 13.8 °F 64% 29.95 in 10.0 mi Calm Calm - N/A   Clear
4:55 PM 25.3 °F - 14.0 °F 62% 29.95 in 10.0 mi Calm Calm - N/A   Clear
5:15 PM 22.8 °F - 12.6 °F 65% 29.95 in 10.0 mi Calm Calm - N/A   Clear
5:35 PM 20.8 °F - 12.4 °F 70% 29.95 in 10.0 mi Calm Calm - N/A   Clear
5:55 PM 16.3 °F - 9.7 °F 75% 29.94 in 10.0 mi Calm Calm - N/A   Clear
6:15 PM 12.2 °F - 7.0 °F 80% 29.95 in 10.0 mi Calm Calm - N/A   Clear
6:35 PM 10.2 °F - 6.6 °F 85% 29.95 in 10.0 mi Calm Calm - N/A   Clear
6:55 PM 9.0 °F 2.4 °F 5.7 °F 87% 29.96 in 10.0 mi WSW 3.5 mph - N/A   Clear
7:15 PM 3.6 °F - -0.6 °F 83% 29.95 in 10.0 mi Calm Calm - N/A   Clear
7:35 PM 5.5 °F - 3.0 °F 89% 29.94 in 7.0 mi Calm Calm - N/A   Clear
7:55 PM 0.1 °F - -4.9 °F 79% 29.93 in 7.0 mi Calm Calm - N/A   Clear
8:15 PM 3.0 °F -9.3 °F 0.1 °F 88% 29.94 in 2.0 mi WSW 6.9 mph - N/A   Clear
8:35 PM 3.2 °F -10.3 °F -0.4 °F 85% 29.94 in 10.0 mi WSW 8.1 mph - N/A   Clear
8:55 PM 1.2 °F -11.5 °F -3.3 °F 81% 29.93 in 10.0 mi SW 6.9 mph - N/A   Clear
9:15 PM 4.1 °F -8.0 °F -0.4 °F 82% 29.94 in 10.0 mi SW 6.9 mph - N/A   Clear
9:35 PM 0.3 °F -7.5 °F -4.4 °F 81% 29.92 in 10.0 mi SW 3.5 mph - N/A   Clear
9:55 PM 1.6 °F -9.7 °F -2.9 °F 81% 29.93 in 10.0 mi SSW 5.8 mph - N/A   Clear
10:15 PM 1.4 °F -6.2 °F -3.5 °F 80% 29.92 in 10.0 mi SW 3.5 mph - N/A   Clear
10:35 PM -1.3 °F -9.3 °F -7.8 °F 74% 29.92 in 10.0 mi West 3.5 mph - N/A   Clear
10:55 PM -4.0 °F - -9.0 °F 79% 29.90 in 10.0 mi Calm Calm - N/A   Clear
11:15 PM 1.2 °F - -3.6 °F 80% 29.90 in 10.0 mi Calm Calm - N/A   Clear
11:35 PM 0.3 °F -11.2 °F -5.3 °F 77% 29.90 in 10.0 mi WSW 5.8 mph - N/A   Clear
11:55 PM -2.7 °F -14.8 °F -8.5 °F 76% 29.91 in 10.0 mi West 5.8 mph - N/A   Clear